MSR9903 KBFI-BIKF

Flight info

Callsign MSR9903
Flight time N/A
Altitude 39000
Route ALPSE DCT YXC DCT 5130N11000W 55N100W 58N090W DCT RONPU DCT BEPEG DCT MUSVA/M080F390 DCT 64N060W 67N050W 6730N04000W 66N030W DCT INDES DCT INGAN INGAN6N
Aircraft B38M/M-SDE1FGHILORVWXY/HB1

Departure

Time N/A
Airport King County International Airport - Boeing Field (KBFI)

Arrival

Time 2026-05-03 22:26
Airport Keflavik International Airport (BIKF)
Time Latitude Longitude Altitude Speed Heading
2026-05-03 20:15 64.01117 -59.97839 39168 ft 477 kts 66°
2026-05-03 20:15 64.02853 -59.91378 39193 ft 481 kts 50°
2026-05-03 20:15 64.05172 -59.85777 39202 ft 483 kts 49°
2026-05-03 20:16 64.09549 -59.74198 39197 ft 486 kts 51°
2026-05-03 20:16 64.13907 -59.62358 39206 ft 487 kts 51°
2026-05-03 20:17 64.18272 -59.50415 39210 ft 487 kts 51°
2026-05-03 20:17 64.22604 -59.38492 39215 ft 487 kts 51°
2026-05-03 20:18 64.26956 -59.26452 39211 ft 488 kts 51°
2026-05-03 20:18 64.31277 -59.14432 39210 ft 488 kts 51°
2026-05-03 20:19 64.35587 -59.02377 39218 ft 488 kts 51°
2026-05-03 20:19 64.39896 -58.90258 39215 ft 488 kts 51°
2026-05-03 20:20 64.44188 -58.78122 39220 ft 488 kts 51°
2026-05-03 20:20 64.48490 -58.65890 39231 ft 488 kts 51°
2026-05-03 20:21 64.52768 -58.53661 39228 ft 488 kts 51°
2026-05-03 20:21 64.57029 -58.41416 39229 ft 488 kts 51°
2026-05-03 20:22 64.61304 -58.29057 39232 ft 488 kts 51°
2026-05-03 20:22 64.65550 -58.16717 39234 ft 488 kts 51°
2026-05-03 20:23 64.69764 -58.04398 39238 ft 488 kts 51°
2026-05-03 20:23 64.74004 -57.91938 39237 ft 488 kts 51°
2026-05-03 20:24 64.78205 -57.79520 39242 ft 488 kts 51°
2026-05-03 20:24 64.82427 -57.66971 39243 ft 488 kts 51°
2026-05-03 20:25 64.86617 -57.54449 39248 ft 487 kts 51°
2026-05-03 20:25 64.90783 -57.41927 39249 ft 487 kts 51°
2026-05-03 20:26 64.94942 -57.29352 39250 ft 487 kts 51°
2026-05-03 20:26 64.99095 -57.16728 39250 ft 487 kts 51°
2026-05-03 20:27 65.03223 -57.04109 39253 ft 486 kts 51°
2026-05-03 20:27 65.07355 -56.91401 39252 ft 486 kts 51°
2026-05-03 20:28 65.11491 -56.78616 39252 ft 490 kts 51°
2026-05-03 20:28 65.15631 -56.65737 39252 ft 494 kts 51°
2026-05-03 20:29 65.19792 -56.52718 39253 ft 494 kts 51°
2026-05-03 20:29 65.23944 -56.39653 39254 ft 494 kts 51°
2026-05-03 20:30 65.28077 -56.26570 39254 ft 494 kts 51°
2026-05-03 20:30 65.32228 -56.13351 39253 ft 494 kts 51°
2026-05-03 20:31 65.36318 -56.00251 39254 ft 494 kts 51°
2026-05-03 20:31 65.38239 -55.93345 39238 ft 495 kts 62°
2026-05-03 20:31 65.39474 -55.85711 39251 ft 495 kts 76°
2026-05-03 20:32 65.41106 -55.69667 39258 ft 497 kts 75°
2026-05-03 20:32 65.42573 -55.56283 39249 ft 497 kts 75°
2026-05-03 20:33 65.44325 -55.40202 39245 ft 497 kts 75°
2026-05-03 20:33 65.46059 -55.24101 39243 ft 497 kts 75°
2026-05-03 20:34 65.47776 -55.07987 39239 ft 496 kts 75°
2026-05-03 20:34 65.49462 -54.91978 39239 ft 496 kts 75°
2026-05-03 20:35 65.51142 -54.75848 39234 ft 496 kts 75°
2026-05-03 20:35 65.52808 -54.59664 39230 ft 496 kts 75°
2026-05-03 20:36 65.54458 -54.43452 39224 ft 497 kts 76°
2026-05-03 20:36 65.56076 -54.27361 39226 ft 497 kts 76°
2026-05-03 20:37 65.57690 -54.11112 39220 ft 497 kts 76°
2026-05-03 20:37 65.59285 -53.94873 39218 ft 497 kts 76°
2026-05-03 20:38 65.60866 -53.78572 39215 ft 497 kts 76°
2026-05-03 20:38 65.62429 -53.62259 39213 ft 497 kts 76°
2026-05-03 20:39 65.63975 -53.45924 39211 ft 497 kts 76°
2026-05-03 20:39 65.65494 -53.29666 39206 ft 498 kts 76°
2026-05-03 20:40 65.67001 -53.13331 39206 ft 498 kts 77°
2026-05-03 20:40 65.68500 -52.96878 39204 ft 498 kts 77°
2026-05-03 20:41 65.69979 -52.80432 39208 ft 498 kts 77°
2026-05-03 20:41 65.71411 -52.64296 39208 ft 499 kts 77°
2026-05-03 20:42 65.72859 -52.47762 39209 ft 499 kts 77°
2026-05-03 20:42 65.74283 -52.31275 39208 ft 499 kts 77°
2026-05-03 20:43 65.75687 -52.14794 39213 ft 499 kts 77°
2026-05-03 20:43 65.77076 -51.98271 39215 ft 500 kts 78°
2026-05-03 20:44 65.78457 -51.81608 39214 ft 500 kts 78°
2026-05-03 20:44 65.79766 -51.65603 39217 ft 500 kts 78°
2026-05-03 20:45 65.81107 -51.48958 39220 ft 500 kts 78°
2026-05-03 20:45 65.82425 -51.32364 39214 ft 501 kts 78°
2026-05-03 20:46 65.83712 -51.15917 39222 ft 501 kts 78°
2026-05-03 20:46 65.85001 -50.99193 39226 ft 501 kts 78°
2026-05-03 20:47 65.86269 -50.82498 39222 ft 501 kts 78°
2026-05-03 20:47 65.87522 -50.65741 39227 ft 502 kts 79°
2026-05-03 20:48 65.88752 -50.49020 39227 ft 502 kts 79°
2026-05-03 20:48 65.89975 -50.32149 39220 ft 502 kts 79°
2026-05-03 20:49 65.91173 -50.15333 39223 ft 502 kts 79°
2026-05-03 20:49 65.92354 -49.98498 39223 ft 503 kts 79°
2026-05-03 20:50 65.93514 -49.81683 39217 ft 503 kts 79°
2026-05-03 20:50 65.94664 -49.64718 39226 ft 503 kts 79°
2026-05-03 20:51 65.95794 -49.47766 39221 ft 503 kts 79°
2026-05-03 20:51 65.96904 -49.30814 39220 ft 503 kts 79°
2026-05-03 20:52 65.97992 -49.13902 39215 ft 504 kts 80°
2026-05-03 20:52 65.99064 -48.96924 39217 ft 504 kts 80°
2026-05-03 20:53 66.00123 -48.79844 39209 ft 504 kts 80°
2026-05-03 20:53 66.01156 -48.62876 39209 ft 504 kts 80°
2026-05-03 20:54 66.02178 -48.45767 39203 ft 504 kts 80°
2026-05-03 20:54 66.03669 -48.20187 39209 ft 504 kts 81°
2026-05-03 20:55 66.04637 -48.03151 39216 ft 505 kts 81°
2026-05-03 20:55 66.05591 -47.86024 39217 ft 505 kts 81°
2026-05-03 20:56 66.06524 -47.68912 39222 ft 505 kts 81°
2026-05-03 20:56 66.07437 -47.51807 39211 ft 505 kts 81°
2026-05-03 20:57 66.08333 -47.34662 39212 ft 505 kts 81°
2026-05-03 20:57 66.09211 -47.17473 39210 ft 505 kts 82°
2026-05-03 20:58 66.10074 -47.00198 39210 ft 506 kts 82°
2026-05-03 20:58 66.10913 -46.83010 39206 ft 506 kts 82°
2026-05-03 20:59 66.11733 -46.65815 39209 ft 506 kts 82°
2026-05-03 20:59 66.12537 -46.48514 39202 ft 506 kts 82°
2026-05-03 21:00 66.13188 -46.34197 39202 ft 506 kts 82°
2026-05-03 21:00 66.14081 -46.14056 39203 ft 506 kts 82°
2026-05-03 21:01 66.14824 -45.96799 39201 ft 506 kts 83°
2026-05-03 21:01 66.15553 -45.79435 39200 ft 506 kts 83°
2026-05-03 21:02 66.16258 -45.62161 39204 ft 506 kts 83°
2026-05-03 21:02 66.16941 -45.44924 39202 ft 506 kts 83°
2026-05-03 21:03 66.17612 -45.27521 39198 ft 506 kts 83°
2026-05-03 21:03 66.18260 -45.10206 39195 ft 506 kts 84°
2026-05-03 21:04 66.18888 -44.92887 39191 ft 506 kts 84°
2026-05-03 21:04 66.19495 -44.75604 39187 ft 506 kts 84°
2026-05-03 21:05 66.20084 -44.58272 39187 ft 506 kts 84°
2026-05-03 21:05 66.20654 -44.40926 39183 ft 506 kts 84°
2026-05-03 21:06 66.21204 -44.23574 39180 ft 505 kts 84°
2026-05-03 21:06 66.21734 -44.06267 39174 ft 505 kts 85°
2026-05-03 21:07 66.22246 -43.88888 39178 ft 505 kts 85°
2026-05-03 21:07 66.22736 -43.71605 39168 ft 505 kts 85°
2026-05-03 21:08 66.23212 -43.54103 39168 ft 506 kts 85°
2026-05-03 21:08 66.23665 -43.36751 39159 ft 506 kts 85°
2026-05-03 21:09 66.24100 -43.19306 39160 ft 507 kts 85°
2026-05-03 21:09 66.24515 -43.01901 39158 ft 508 kts 85°
2026-05-03 21:10 66.24913 -42.84346 39156 ft 509 kts 85°
2026-05-03 21:10 66.25291 -42.66824 39159 ft 510 kts 86°
2026-05-03 21:11 66.25649 -42.49306 39162 ft 510 kts 86°
2026-05-03 21:11 66.25990 -42.31602 39168 ft 512 kts 86°
2026-05-03 21:12 66.26310 -42.13982 39171 ft 512 kts 86°
2026-05-03 21:12 66.26610 -41.96339 39174 ft 513 kts 86°
2026-05-03 21:13 66.26890 -41.78640 39178 ft 514 kts 86°
2026-05-03 21:13 66.27151 -41.60939 39188 ft 514 kts 86°
2026-05-03 21:14 66.27393 -41.43136 39193 ft 515 kts 86°
2026-05-03 21:14 66.27614 -41.25376 39195 ft 515 kts 86°
2026-05-03 21:15 66.27814 -41.07624 39201 ft 516 kts 86°
2026-05-03 21:15 66.27994 -40.89866 39207 ft 516 kts 86°
2026-05-03 21:16 66.28155 -40.72066 39212 ft 516 kts 87°
2026-05-03 21:16 66.28296 -40.54147 39219 ft 517 kts 87°
2026-05-03 21:17 66.28396 -40.39368 39222 ft 517 kts 87°
2026-05-03 21:17 66.28514 -40.18544 39233 ft 517 kts 87°
2026-05-03 21:18 66.28593 -40.00668 39235 ft 518 kts 87°
2026-05-03 21:18 66.28651 -39.82910 39235 ft 518 kts 87°
2026-05-03 21:19 66.28689 -39.65015 39242 ft 518 kts 87°
2026-05-03 21:19 66.28697 -39.59168 39239 ft 518 kts 87°
2026-05-03 21:20 66.28707 -39.41025 39244 ft 518 kts 87°
2026-05-03 21:20 66.28697 -39.23246 39250 ft 518 kts 87°
2026-05-03 21:21 66.28667 -39.05350 39250 ft 518 kts 88°
2026-05-03 21:21 66.28615 -38.87403 39250 ft 519 kts 88°
2026-05-03 21:22 66.28544 -38.69464 39244 ft 519 kts 88°
2026-05-03 21:22 66.28529 -38.66318 39241 ft 519 kts 88°
2026-05-03 21:23 66.28418 -38.46025 39232 ft 519 kts 88°
2026-05-03 21:23 66.28338 -38.33650 39216 ft 520 kts 88°
2026-05-03 21:24 66.28204 -38.15713 39201 ft 521 kts 88°
2026-05-03 21:24 66.28076 -38.00707 39176 ft 521 kts 88°
2026-05-03 21:25 66.27903 -37.82626 39163 ft 522 kts 88°
2026-05-03 21:25 66.27708 -37.64601 39150 ft 523 kts 88°
2026-05-03 21:26 66.27493 -37.46539 39136 ft 523 kts 88°
2026-05-03 21:26 66.27257 -37.28565 39132 ft 522 kts 89°
2026-05-03 21:27 66.27001 -37.10524 39125 ft 521 kts 89°
2026-05-03 21:27 66.26724 -36.92588 39115 ft 520 kts 90°
2026-05-03 21:28 66.26430 -36.74788 39113 ft 519 kts 90°
2026-05-03 21:28 66.26111 -36.56809 39106 ft 518 kts 90°
2026-05-03 21:29 66.25776 -36.38997 39104 ft 517 kts 91°
2026-05-03 21:29 66.25418 -36.21139 39100 ft 517 kts 91°
2026-05-03 21:30 66.25043 -36.03385 39103 ft 516 kts 91°
2026-05-03 21:30 66.24647 -35.85644 39099 ft 516 kts 91°
2026-05-03 21:31 66.24229 -35.67866 39096 ft 517 kts 92°
2026-05-03 21:31 66.23791 -35.50070 39117 ft 518 kts 92°
2026-05-03 21:32 66.23332 -35.32252 39102 ft 519 kts 92°
2026-05-03 21:32 66.22849 -35.14320 39100 ft 520 kts 92°
2026-05-03 21:33 66.22349 -34.96543 39099 ft 520 kts 92°
2026-05-03 21:33 66.22279 -34.94094 39095 ft 520 kts 92°
2026-05-03 21:34 66.21815 -34.78294 39097 ft 521 kts 93°
2026-05-03 21:34 66.21270 -34.60405 39093 ft 521 kts 94°
2026-05-03 21:35 66.20705 -34.42505 39099 ft 521 kts 94°
2026-05-03 21:35 66.20119 -34.24604 39097 ft 522 kts 94°
2026-05-03 21:36 66.19511 -34.06716 39094 ft 522 kts 94°
2026-05-03 21:36 66.18886 -33.88904 39093 ft 522 kts 94°
2026-05-03 21:37 66.18434 -33.76393 39094 ft 523 kts 94°
2026-05-03 21:37 66.17771 -33.58518 39097 ft 523 kts 94°
2026-05-03 21:38 66.17086 -33.40630 39093 ft 523 kts 94°
2026-05-03 21:38 66.16381 -33.22747 39098 ft 523 kts 95°
2026-05-03 21:39 66.15654 -33.04859 39099 ft 523 kts 95°
2026-05-03 21:39 66.14908 -32.87017 39100 ft 523 kts 95°
2026-05-03 21:40 66.14138 -32.69096 39103 ft 523 kts 95°
2026-05-03 21:40 66.13353 -32.51312 39102 ft 522 kts 95°
2026-05-03 21:41 66.12546 -32.33522 39099 ft 522 kts 95°
2026-05-03 21:41 66.11716 -32.15679 39099 ft 522 kts 95°
2026-05-03 21:42 66.10873 -31.98018 39096 ft 521 kts 96°
2026-05-03 21:42 66.10004 -31.80216 39099 ft 521 kts 96°
2026-05-03 21:43 66.09118 -31.62519 39096 ft 521 kts 96°
2026-05-03 21:43 66.08211 -31.44834 39096 ft 521 kts 96°
2026-05-03 21:44 66.07286 -31.27180 39092 ft 521 kts 96°
2026-05-03 21:44 66.06335 -31.09430 39091 ft 521 kts 96°
2026-05-03 21:45 66.05370 -30.91828 39089 ft 520 kts 96°
2026-05-03 21:45 66.04384 -30.74212 39088 ft 520 kts 96°
2026-05-03 21:46 66.03378 -30.56606 39084 ft 520 kts 97°
2026-05-03 21:46 66.02353 -30.39032 39086 ft 520 kts 97°
2026-05-03 21:47 66.01300 -30.21340 39082 ft 521 kts 97°
2026-05-03 21:47 66.00210 -30.03794 39074 ft 521 kts 101°
2026-05-03 21:48 65.99085 -29.95441 39072 ft 520 kts 117°
2026-05-03 21:48 65.97364 -29.87601 39074 ft 521 kts 118°
2026-05-03 21:48 65.94021 -29.71798 39080 ft 522 kts 118°
2026-05-03 21:49 65.90683 -29.56209 39074 ft 522 kts 118°
2026-05-03 21:49 65.87294 -29.40502 39073 ft 522 kts 118°
2026-05-03 21:50 65.83893 -29.24857 39071 ft 522 kts 118°
2026-05-03 21:50 65.80480 -29.09272 39073 ft 522 kts 118°
2026-05-03 21:51 65.77046 -28.93702 39071 ft 522 kts 118°
2026-05-03 21:51 65.73575 -28.78080 39070 ft 522 kts 119°
2026-05-03 21:52 65.70118 -28.62634 39069 ft 521 kts 119°
2026-05-03 21:52 65.66646 -28.47230 39069 ft 521 kts 119°
2026-05-03 21:53 65.63149 -28.31827 39074 ft 521 kts 119°
2026-05-03 21:53 65.59649 -28.16516 39070 ft 521 kts 120°
2026-05-03 21:54 65.56132 -28.01243 39073 ft 520 kts 120°
2026-05-03 21:54 65.52607 -27.86044 39068 ft 520 kts 120°
2026-05-03 21:55 65.49040 -27.70769 39065 ft 521 kts 120°
2026-05-03 21:55 65.45476 -27.55615 39064 ft 521 kts 120°
2026-05-03 21:56 65.43093 -27.45543 39068 ft 521 kts 120°
2026-05-03 21:56 65.39609 -27.30898 39063 ft 514 kts 120°
2026-05-03 21:57 65.36039 -27.15991 39062 ft 514 kts 121°
2026-05-03 21:57 65.32482 -27.01237 38791 ft 513 kts 121°
2026-05-03 21:58 65.30700 -26.93887 38502 ft 513 kts 121°
2026-05-03 21:58 65.29499 -26.88947 38296 ft 514 kts 121°
2026-05-03 21:58 65.28224 -26.83713 38064 ft 515 kts 121°
2026-05-03 21:58 65.26410 -26.76288 37746 ft 518 kts 121°
2026-05-03 21:59 65.25783 -26.73728 37621 ft 519 kts 121°
2026-05-03 21:59 65.25111 -26.70986 37519 ft 520 kts 121°
2026-05-03 21:59 65.24443 -26.68259 37406 ft 521 kts 121°
2026-05-03 21:59 65.22603 -26.60776 37087 ft 524 kts 122°
2026-05-03 22:00 65.20758 -26.53287 36788 ft 527 kts 122°
2026-05-03 22:00 65.20019 -26.50297 36663 ft 528 kts 122°
2026-05-03 22:00 65.18775 -26.45265 36463 ft 530 kts 122°
2026-05-03 22:00 65.18049 -26.42334 36338 ft 530 kts 122°
2026-05-03 22:01 65.16680 -26.36969 36118 ft 529 kts 127°
2026-05-03 22:01 65.14517 -26.29912 35819 ft 532 kts 129°
2026-05-03 22:01 65.12322 -26.22806 35517 ft 535 kts 129°
2026-05-03 22:01 65.10088 -26.15602 35205 ft 537 kts 129°
2026-05-03 22:02 65.07895 -26.08558 34935 ft 539 kts 130°
2026-05-03 22:02 65.05655 -26.01390 34644 ft 541 kts 130°
2026-05-03 22:02 65.03415 -25.94241 34359 ft 543 kts 130°
2026-05-03 22:02 65.01136 -25.86993 34065 ft 545 kts 130°
2026-05-03 22:03 64.98865 -25.79793 33724 ft 546 kts 130°
2026-05-03 22:03 64.96593 -25.72614 33386 ft 547 kts 130°
2026-05-03 22:03 64.94306 -25.65408 33058 ft 548 kts 131°
2026-05-03 22:03 64.92048 -25.58319 32744 ft 549 kts 131°
2026-05-03 22:04 64.89724 -25.51044 32421 ft 549 kts 131°
2026-05-03 22:04 64.87431 -25.43894 32114 ft 550 kts 131°
2026-05-03 22:04 64.85136 -25.36754 31792 ft 550 kts 131°
2026-05-03 22:04 64.82825 -25.29592 31482 ft 551 kts 131°
2026-05-03 22:05 64.80512 -25.22446 31173 ft 551 kts 131°
2026-05-03 22:05 64.78186 -25.15284 30865 ft 551 kts 131°
2026-05-03 22:05 64.75846 -25.08099 30570 ft 552 kts 131°
2026-05-03 22:05 64.73527 -25.01005 30286 ft 552 kts 131°
2026-05-03 22:06 64.71198 -24.93898 29951 ft 552 kts 132°
2026-05-03 22:06 64.68835 -24.86716 29600 ft 552 kts 132°
2026-05-03 22:06 64.66491 -24.79607 29262 ft 551 kts 132°
2026-05-03 22:06 64.64168 -24.72588 28930 ft 552 kts 132°
2026-05-03 22:07 64.61824 -24.65527 28596 ft 551 kts 132°
2026-05-03 22:07 64.59450 -24.58397 28273 ft 551 kts 131°
2026-05-03 22:07 64.57107 -24.51368 27950 ft 551 kts 131°
2026-05-03 22:07 64.54998 -24.43892 27614 ft 555 kts 122°
2026-05-03 22:08 64.53054 -24.36156 27297 ft 555 kts 123°
2026-05-03 22:08 64.51103 -24.28462 26985 ft 555 kts 123°
2026-05-03 22:08 64.49141 -24.20749 26676 ft 555 kts 123°
2026-05-03 22:08 64.47177 -24.13061 26357 ft 554 kts 123°
2026-05-03 22:09 64.45216 -24.05403 26071 ft 554 kts 123°
2026-05-03 22:09 64.43243 -23.97733 25767 ft 554 kts 123°
2026-05-03 22:09 64.41269 -23.90084 25467 ft 554 kts 123°
2026-05-03 22:10 64.37310 -23.74819 24884 ft 553 kts 123°
2026-05-03 22:10 64.35334 -23.67238 24596 ft 552 kts 123°
2026-05-03 22:10 64.33333 -23.59586 24309 ft 551 kts 123°
2026-05-03 22:10 64.31358 -23.52065 24030 ft 549 kts 123°
2026-05-03 22:11 64.29365 -23.44560 23766 ft 549 kts 126°
2026-05-03 22:11 64.26975 -23.37883 24273 ft 540 kts 140°
2026-05-03 22:11 64.24007 -23.32582 24613 ft 532 kts 156°
2026-05-03 22:11 64.20721 -23.29063 25069 ft 522 kts 165°
2026-05-03 22:12 64.17390 -23.25667 25456 ft 527 kts 163°
2026-05-03 22:12 64.14018 -23.22125 25996 ft 526 kts 163°
2026-05-03 22:12 64.10745 -23.18660 26525 ft 525 kts 163°
2026-05-03 22:12 64.07440 -23.15160 27019 ft 525 kts 163°
2026-05-03 22:13 64.04127 -23.11656 26925 ft 522 kts 163°
2026-05-03 22:13 64.00885 -23.08231 26523 ft 502 kts 163°
2026-05-03 22:13 63.97759 -23.04942 25963 ft 485 kts 163°
2026-05-03 22:13 63.95728 -23.02815 25503 ft 477 kts 163°
2026-05-03 22:14 63.92734 -22.99682 24817 ft 466 kts 163°
2026-05-03 22:14 63.89858 -22.96677 24156 ft 456 kts 163°
2026-05-03 22:14 63.87004 -22.93701 23470 ft 448 kts 163°
2026-05-03 22:14 63.84165 -22.90698 22509 ft 446 kts 159°
2026-05-03 22:15 63.81526 -22.86956 21581 ft 446 kts 155°
2026-05-03 22:15 63.78824 -22.83770 20696 ft 435 kts 161°
2026-05-03 22:15 63.76102 -22.80870 19822 ft 431 kts 162°
2026-05-03 22:15 63.73412 -22.78047 19008 ft 426 kts 162°
2026-05-03 22:16 63.70736 -22.75267 18182 ft 421 kts 162°
2026-05-03 22:16 63.68089 -22.72548 17261 ft 416 kts 162°
2026-05-03 22:16 63.65445 -22.69864 16365 ft 410 kts 162°
2026-05-03 22:16 63.62857 -22.67267 15507 ft 405 kts 162°
2026-05-03 22:17 63.60314 -22.64742 14678 ft 399 kts 162°
2026-05-03 22:17 63.57862 -22.61917 13861 ft 401 kts 147°
2026-05-03 22:17 63.55904 -22.57396 12954 ft 401 kts 129°
2026-05-03 22:17 63.54491 -22.52152 12056 ft 397 kts 109°
2026-05-03 22:18 63.54057 -22.46180 11191 ft 386 kts 83°
2026-05-03 22:18 63.54715 -22.40489 10353 ft 367 kts 56°
2026-05-03 22:18 63.56254 -22.36180 9553 ft 345 kts 34°
2026-05-03 22:18 63.58261 -22.33737 8727 ft 321 kts
2026-05-03 22:19 63.60414 -22.33142 7987 ft 306 kts 355°
2026-05-03 22:19 63.62442 -22.33800 7416 ft 288 kts 338°
2026-05-03 22:19 63.64227 -22.35613 6916 ft 274 kts 330°
2026-05-03 22:19 63.65901 -22.37435 6422 ft 265 kts 332°
2026-05-03 22:20 63.67533 -22.39171 5942 ft 256 kts 332°
2026-05-03 22:20 63.69146 -22.40867 5448 ft 249 kts 332°
2026-05-03 22:20 63.70686 -22.42475 4965 ft 243 kts 333°
2026-05-03 22:20 63.72212 -22.44060 4539 ft 236 kts 333°
2026-05-03 22:21 63.73668 -22.45569 4174 ft 227 kts 333°
2026-05-03 22:21 63.75081 -22.47030 3811 ft 220 kts 334°
2026-05-03 22:21 63.76448 -22.48443 3450 ft 213 kts 334°
2026-05-03 22:21 63.77777 -22.49814 3089 ft 207 kts 333°
2026-05-03 22:22 63.79071 -22.51150 2719 ft 202 kts 334°
2026-05-03 22:22 63.80336 -22.52459 2393 ft 199 kts 334°
2026-05-03 22:22 63.81603 -22.53770 2054 ft 198 kts 334°
2026-05-03 22:22 63.82846 -22.55055 1825 ft 192 kts 333°
2026-05-03 22:23 63.84047 -22.56297 1825 ft 191 kts 334°
2026-05-03 22:23 63.85226 -22.57519 1824 ft 180 kts 333°
2026-05-03 22:23 63.86305 -22.58637 1819 ft 166 kts 333°
2026-05-03 22:23 63.87367 -22.59734 1822 ft 167 kts 334°
2026-05-03 22:24 63.88506 -22.60216 1806 ft 169 kts 354°
2026-05-03 22:24 63.89665 -22.60373 1660 ft 165 kts 352°
2026-05-03 22:24 63.90753 -22.60476 1398 ft 148 kts 354°
2026-05-03 22:24 63.91782 -22.60500 1159 ft 149 kts 355°
2026-05-03 22:25 63.92782 -22.60511 949 ft 138 kts 356°
2026-05-03 22:25 63.93732 -22.60510 695 ft 135 kts 358°
2026-05-03 22:25 63.94617 -22.60527 523 ft 136 kts 358°
2026-05-03 22:25 63.95568 -22.60553 357 ft 135 kts 359°
2026-05-03 22:26 63.96502 -22.60538 170 ft 132 kts 359°
2026-05-03 22:26 63.97320 -22.60541 172 ft 93 kts 360°
2026-05-03 22:26 63.97752 -22.60542 175 ft 49 kts 360°
2026-05-03 22:26 63.98100 -22.60612 174 ft 47 kts 342°
2026-05-03 22:27 63.98313 -22.60871 168 ft 23 kts 330°
2026-05-03 22:27 63.98468 -22.60940 168 ft 25 kts
2026-05-03 22:27 63.98648 -22.60939 166 ft 28 kts
2026-05-03 22:27 63.98850 -22.60936 166 ft 28 kts
2026-05-03 22:28 63.98961 -22.60937 169 ft 23 kts 359°
2026-05-03 22:28 63.98967 -22.60937 170 ft 23 kts 359°
2026-05-03 22:28 63.99132 -22.60939 164 ft 23 kts 359°
2026-05-03 22:28 63.99174 -22.61125 159 ft 9 kts 269°
2026-05-03 22:29 63.99173 -22.61263 156 ft 10 kts 268°
2026-05-03 22:29 63.99173 -22.61372 154 ft 9 kts 271°
2026-05-03 22:29 63.99173 -22.61560 150 ft 15 kts 270°
2026-05-03 22:29 63.99173 -22.61854 144 ft 22 kts 270°
2026-05-03 22:30 63.99174 -22.62221 143 ft 24 kts 271°
2026-05-03 22:30 63.99173 -22.62620 143 ft 26 kts 269°
2026-05-03 22:30 63.99172 -22.62985 143 ft 24 kts 270°
2026-05-03 22:30 63.99170 -22.63334 143 ft 22 kts 266°
2026-05-03 22:31 63.99259 -22.63521 143 ft 14 kts 330°
2026-05-03 22:31 63.99322 -22.63521 143 ft 9 kts 47°
2026-05-03 22:31 63.99314 -22.63448 143 ft 1 kts 122°
2026-05-03 22:31 63.99309 -22.63430 143 ft 0 kts 122°